Location: Home
(42.5358°N, 72.7383°W)
Time: 09:56:41
(UTC-05:00)

S-56A Canister/Altair - Pass Details

Date: 03 December 2021
Orbit: 634 x 2499 km, 38.9° (Epoch: 22 January)

Event Time Altitude Azimuth Distance (km) Brightness Sun altitude
Rises 04:45:41 0° 276° (W) 3,603 - -24.7°
Reaches altitude 10° 04:48:51 10° 266° (W) 2,424 - -24.1°
Maximum altitude 04:53:29 29° 207° (SSW) 1,255 - -23.3°
Exits shadow 04:53:29 29° 207° (SSW) 1,254 8.4 -23.3°
Drops below altitude 10° 04:57:24 10° 146° (SE) 2,025 10.3 -22.5°
Sets 04:59:49 0° 134° (SE) 2,909 11.4 -22.1°
